Atmospheric History
12/06/2017 18:49  to  12/7/2017 18:49
Change End Date:
To complete the export process:
1) Select all of the data below
2) Copy the data to the clipboard
3) Open a word processor such as Notepad
4) Paste the data into the word processor
5) Save the file

Date/Time (MST), AirTemp, RH, Dewpoint ,AvgWindSpeed, GustWindSpeed, WindDirection, PrecipType, PrecipIntensity, PrecipAccumulation, PrecipRate
12/07/2017 18:42, 34, 51, 18 ,7, 11, W, None, None, ,  
12/07/2017 18:35, 33, 52, 18 ,5, 9, NW, None, None, ,  
12/07/2017 18:32, 33, 52, 18 ,6, 9, W, None, None, ,  
12/07/2017 18:22, 34, 51, 18 ,6, 12, W, None, None, ,  
12/07/2017 18:20, 34, 50, 18 ,6, 11, W, None, None, ,  
12/07/2017 18:12, 35, 49, 18 ,6, 11, W, None, None, ,  
12/07/2017 18:05, 35, 49, 18 ,7, 9, W, None, None, ,  
12/07/2017 18:02, 34, 49, 17 ,6, 11, W, None, None, ,  
12/07/2017 17:52, 35, 47, 17 ,7, 11, W, None, None, ,  
12/07/2017 17:50, 35, 47, 17 ,7, 11, W, None, None, ,  
12/07/2017 17:42, 35, 46, 17 ,6, 11, NW, None, None, ,  
12/07/2017 17:35, 36, 44, 17 ,6, 12, W, None, None, ,  
12/07/2017 17:32, 36, 43, 16 ,7, 12, W, None, None, ,  
12/07/2017 17:22, 36, 43, 16 ,7, 12, NW, None, None, ,  
12/07/2017 17:20, 36, 43, 16 ,7, 12, NW, None, None, ,  
12/07/2017 17:12, 37, 42, 16 ,7, 14, W, None, None, ,  
12/07/2017 17:05, 36, 42, 16 ,6, 11, W, None, None, ,  
12/07/2017 17:02, 37, 42, 16 ,6, 11, W, None, None, ,  
12/07/2017 16:52, 37, 41, 16 ,7, 12, W, None, None, ,  
12/07/2017 16:50, 37, 41, 16 ,6, 12, W, None, None, ,  
12/07/2017 16:42, 38, 39, 16 ,6, 12, W, None, None, ,  
12/07/2017 16:35, 38, 39, 16 ,7, 14, W, None, None, ,  
12/07/2017 16:32, 38, 39, 16 ,9, 14, NW, None, None, ,  
12/07/2017 16:22, 39, 38, 16 ,7, 16, W, None, None, ,  
12/07/2017 16:20, 39, 38, 16 ,9, 16, NW, None, None, ,  
12/07/2017 16:12, 39, 38, 16 ,10, 16, W, None, None, ,  
12/07/2017 16:05, 39, 37, 16 ,9, 19, NW, None, None, ,  
12/07/2017 16:02, 40, 36, 15 ,11, 19, W, None, None, ,  
12/07/2017 15:52, 40, 37, 16 ,12, 20, W, None, None, ,  
12/07/2017 15:50, 40, 37, 16 ,12, 20, W, None, None, ,  
12/07/2017 15:42, 40, 36, 16 ,11, 17, W, None, None, ,  
12/07/2017 15:35, 40, 36, 16 ,11, 19, W, None, None, ,  
12/07/2017 15:32, 41, 35, 16 ,12, 20, NW, None, None, ,  
12/07/2017 15:22, 41, 36, 16 ,12, 18, NW, None, None, ,  
12/07/2017 15:20, 41, 36, 16 ,12, 18, NW, None, None, ,  
12/07/2017 15:12, 41, 35, 16 ,11, 19, NW, None, None, ,  
12/07/2017 15:05, 41, 35, 16 ,12, 21, W, None, None, ,  
12/07/2017 15:02, 41, 35, 16 ,14, 21, W, None, None, ,  
12/07/2017 14:52, 41, 35, 16 ,12, 21, W, None, None, ,  
12/07/2017 14:50, 41, 35, 16 ,14, 21, W, None, None, ,  
12/07/2017 14:41, 41, 35, 16 ,12, 18, NW, None, None, ,  
12/07/2017 14:35, 42, 35, 16 ,12, 22, NW, None, None, ,  
12/07/2017 14:31, 42, 35, 16 ,13, 22, W, None, None, ,  
12/07/2017 14:21, 41, 36, 17 ,13, 20, NW, None, None, ,  
12/07/2017 14:20, 41, 36, 17 ,11, 17, W, None, None, ,  
12/07/2017 14:11, 42, 36, 17 ,11, 21, W, None, None, ,  
12/07/2017 14:05, 42, 36, 17 ,12, 21, W, None, None, ,  
12/07/2017 14:01, 42, 36, 17 ,12, 21, W, None, None, ,  
12/07/2017 13:51, 42, 36, 17 ,13, 30, W, None, None, ,  
12/07/2017 13:50, 42, 36, 17 ,14, 30, W, None, None, ,  
12/07/2017 13:41, 41, 37, 17 ,14, 27, W, None, None, ,  
12/07/2017 13:35, 41, 38, 18 ,16, 24, NW, None, None, ,  
12/07/2017 13:31, 41, 38, 18 ,13, 25, W, None, None, ,  
12/07/2017 13:21, 40, 40, 18 ,15, 24, W, None, None, ,  
12/07/2017 13:20, 40, 40, 18 ,14, 24, NW, None, None, ,  
12/07/2017 13:11, 40, 41, 18 ,12, 21, NW, None, None, ,  
12/07/2017 13:05, 40, 41, 19 ,13, 21, NW, None, None, ,  
12/07/2017 13:01, 40, 43, 19 ,12, 18, NW, None, None, ,  
12/07/2017 12:51, 39, 45, 20 ,12, 21, W, None, None, ,  
12/07/2017 12:50, 39, 45, 20 ,11, 21, W, None, None, ,  
12/07/2017 12:41, 38, 48, 20 ,13, 21, W, None, None, ,  
12/07/2017 12:35, 37, 50, 20 ,12, 21, W, None, None, ,  
12/07/2017 12:31, 37, 52, 21 ,14, 21, W, None, None, ,  
12/07/2017 12:21, 35, 56, 21 ,9, 18, NW, None, None, ,  
12/07/2017 12:11, 35, 55, 21 ,12, 19, NW, None, None, ,  
12/07/2017 12:05, 34, 55, 20 ,11, 17, NW, None, None, ,  
12/07/2017 12:01, 35, 54, 20 ,11, 18, NW, None, None, ,  
12/07/2017 11:51, 34, 55, 20 ,10, 19, W, None, None, ,  
12/07/2017 11:50, 34, 55, 20 ,12, 19, W, None, None, ,  
12/07/2017 11:41, 33, 57, 20 ,7, 14, W, None, None, ,  
12/07/2017 11:35, 33, 56, 19 ,7, 14, NW, None, None, ,  
12/07/2017 11:31, 33, 56, 19 ,8, 14, NW, None, None, ,  
12/07/2017 11:21, 33, 56, 19 ,8, 15, W, None, None, ,  
12/07/2017 11:20, 33, 56, 19 ,8, 15, W, None, None, ,  
12/07/2017 11:11, 33, 55, 19 ,9, 16, NW, None, None, ,  
12/07/2017 11:05, 33, 55, 19 ,10, 16, W, None, None, ,  
12/07/2017 11:01, 33, 55, 19 ,10, 14, W, None, None, ,  
12/07/2017 10:51, 33, 55, 19 ,7, 17, NW, None, None, ,  
12/07/2017 10:50, 33, 54, 18 ,9, 17, NW, None, None, ,  
12/07/2017 10:41, 32, 54, 18 ,9, 15, NW, None, None, ,  
12/07/2017 10:35, 32, 54, 18 ,11, 16, W, None, None, ,  
12/07/2017 10:31, 32, 54, 18 ,10, 16, W, None, None, ,  
12/07/2017 10:21, 32, 55, 18 ,9, 14, NW, None, None, ,  
12/07/2017 10:20, 33, 55, 18 ,7, 14, NW, None, None, ,  
12/07/2017 10:11, 32, 55, 18 ,7, 12, NW, None, None, ,  
12/07/2017 10:05, 31, 56, 18 ,8, 12, W, None, None, ,  
12/07/2017 10:01, 31, 57, 18 ,7, 12, NW, None, None, ,  
12/07/2017 09:51, 31, 57, 17 ,7, 11, W, None, None, ,  
12/07/2017 09:50, 31, 57, 17 ,6, 11, NW, None, None, ,  
12/07/2017 09:41, 31, 56, 17 ,6, 11, NW, None, None, ,  
12/07/2017 09:35, 31, 56, 17 ,7, 11, W, None, None, ,  
12/07/2017 09:31, 31, 55, 17 ,7, 13, W, None, None, ,  
12/07/2017 09:21, 31, 56, 17 ,9, 14, NW, None, None, ,  
12/07/2017 09:20, 31, 56, 17 ,7, 13, NW, None, None, ,  
12/07/2017 09:11, 31, 56, 17 ,7, 12, NW, None, None, ,  
12/07/2017 09:01, 31, 55, 17 ,8, 16, W, None, None, ,  
12/07/2017 08:51, 31, 55, 17 ,9, 14, W, None, None, ,  
12/07/2017 08:50, 31, 55, 17 ,9, 14, W, None, None, ,  
12/07/2017 08:41, 31, 55, 17 ,9, 15, W, None, None, ,  
12/07/2017 08:35, 31, 56, 17 ,11, 15, W, None, None, ,  
12/07/2017 08:30, 31, 56, 17 ,9, 16, NW, None, None, ,  
12/07/2017 08:20, 31, 56, 17 ,9, 17, NW, None, None, ,  
12/07/2017 08:20, 31, 56, 17 ,9, 17, W, None, None, ,  
12/07/2017 08:10, 30, 57, 17 ,9, 17, W, None, None, ,  
12/07/2017 08:05, 30, 57, 17 ,9, 16, NW, None, None, ,  
12/07/2017 08:00, 30, 58, 17 ,9, 16, NW, None, None, ,  
12/07/2017 07:50, 29, 61, 17 ,9, 16, NW, None, None, ,  
12/07/2017 07:50, 29, 61, 17 ,9, 16, NW, None, None, ,  
12/07/2017 07:40, 28, 61, 17 ,7, 15, W, None, None, ,  
12/07/2017 07:35, 28, 61, 17 ,7, 14, NW, None, None, ,  
12/07/2017 07:30, 28, 62, 17 ,7, 15, NW, None, None, ,  
12/07/2017 07:20, 28, 62, 17 ,10, 16, NW, None, None, ,  
12/07/2017 07:20, 28, 62, 17 ,9, 16, W, None, None, ,  
12/07/2017 07:10, 28, 62, 17 ,10, 14, NW, None, None, ,  
12/07/2017 07:05, 28, 62, 17 ,7, 14, W, None, None, ,  
12/07/2017 07:00, 28, 61, 17 ,7, 14, NW, None, None, ,  
12/07/2017 06:50, 29, 60, 17 ,11, 16, W, None, None, ,  
12/07/2017 06:50, 29, 60, 17 ,10, 16, NW, None, None, ,  
12/07/2017 06:40, 28, 62, 17 ,9, 15, W, None, None, ,  
12/07/2017 06:35, 27, 62, 16 ,9, 13, NW, None, None, ,  
12/07/2017 06:30, 27, 63, 16 ,7, 15, W, None, None, ,  
12/07/2017 06:20, 27, 62, 16 ,7, 14, W, None, None, ,  
12/07/2017 06:20, 27, 62, 16 ,7, 14, NW, None, None, ,  
12/07/2017 06:10, 27, 62, 16 ,10, 16, NW, None, None, ,  
12/07/2017 06:05, 27, 62, 16 ,9, 16, NW, None, None, ,  
12/07/2017 06:00, 28, 62, 17 ,11, 16, W, None, None, ,  
12/07/2017 05:50, 27, 62, 16 ,7, 12, NW, None, None, ,  
12/07/2017 05:50, 27, 62, 16 ,7, 12, NW, None, None, ,  
12/07/2017 05:40, 27, 62, 16 ,8, 14, W, None, None, ,  
12/07/2017 05:35, 27, 62, 16 ,7, 12, W, None, None, ,  
12/07/2017 05:30, 26, 62, 15 ,7, 12, W, None, None, ,  
12/07/2017 05:20, 26, 62, 15 ,9, 12, W, None, None, ,  
12/07/2017 05:20, 26, 62, 15 ,9, 12, NW, None, None, ,  
12/07/2017 05:10, 26, 63, 15 ,7, 11, NW, None, None, ,  
12/07/2017 05:05, 26, 63, 15 ,6, 10, NW, None, None, ,  
12/07/2017 05:00, 26, 62, 15 ,6, 14, NW, None, None, ,  
12/07/2017 04:50, 26, 62, 15 ,7, 11, NW, None, None, ,  
12/07/2017 04:50, 26, 62, 15 ,7, 11, NW, None, None, ,  
12/07/2017 04:40, 26, 63, 15 ,5, 11, NW, None, None, ,  
12/07/2017 04:35, 26, 62, 15 ,7, 11, NW, None, None, ,  
12/07/2017 04:30, 27, 61, 15 ,5, 15, NW, None, None, ,  
12/07/2017 04:20, 28, 59, 16 ,7, 13, NW, None, None, ,  
12/07/2017 04:20, 28, 59, 16 ,7, 13, NW, None, None, ,  
12/07/2017 04:10, 28, 59, 16 ,7, 11, W, None, None, ,  
12/07/2017 04:05, 29, 58, 16 ,7, 12, W, None, None, ,  
12/07/2017 04:00, 28, 58, 16 ,7, 12, W, None, None, ,  
12/07/2017 03:50, 28, 58, 15 ,7, 13, W, None, None, ,  
12/07/2017 03:50, 28, 58, 15 ,7, 13, W, None, None, ,  
12/07/2017 03:40, 28, 58, 16 ,7, 12, NW, None, None, ,  
12/07/2017 03:35, 29, 57, 16 ,7, 13, NW, None, None, ,  
12/07/2017 03:30, 29, 58, 16 ,7, 12, W, None, None, ,  
12/07/2017 03:20, 27, 60, 15 ,7, 12, NW, None, None, ,  
12/07/2017 03:20, 27, 60, 15 ,7, 12, NW, None, None, ,  
12/07/2017 03:10, 27, 60, 15 ,6, 13, NW, None, None, ,  
12/07/2017 03:05, 27, 60, 15 ,8, 13, NW, None, None, ,  
12/07/2017 03:00, 27, 60, 15 ,7, 11, W, None, None, ,  
12/07/2017 02:50, 27, 60, 15 ,7, 11, NW, None, None, ,  
12/07/2017 02:50, 27, 60, 15 ,6, 11, NW, None, None, ,  
12/07/2017 02:40, 27, 61, 16 ,7, 12, W, None, None, ,  
12/07/2017 02:35, 27, 61, 16 ,6, 12, NW, None, None, ,  
12/07/2017 02:29, 27, 62, 15 ,6, 10, NW, None, None, ,  
12/07/2017 02:20, 26, 62, 15 ,7, 9, NW, None, None, ,  
12/07/2017 02:19, 26, 62, 15 ,7, 9, NW, None, None, ,  
12/07/2017 02:09, 26, 63, 15 ,6, 9, W, None, None, ,  
12/07/2017 02:05, 26, 63, 15 ,6, 10, NW, None, None, ,  
12/07/2017 01:59, 26, 62, 15 ,5, 11, NW, None, None, ,  
12/07/2017 01:50, 27, 61, 15 ,7, 12, NW, None, None, ,  
12/07/2017 01:49, 27, 61, 15 ,7, 12, NW, None, None, ,  
12/07/2017 01:39, 28, 59, 15 ,7, 12, NW, None, None, ,  
12/07/2017 01:35, 28, 59, 15 ,7, 12, NW, None, None, ,  
12/07/2017 01:29, 28, 59, 15 ,7, 12, NW, None, None, ,  
12/07/2017 01:20, 28, 58, 15 ,6, 11, NW, None, None, ,  
12/07/2017 01:19, 28, 58, 15 ,6, 11, NW, None, None, ,  
12/07/2017 01:09, 28, 57, 15 ,6, 13, W, None, None, ,  
12/07/2017 01:05, 28, 56, 15 ,7, 13, NW, None, None, ,  
12/07/2017 00:59, 28, 57, 15 ,8, 12, NW, None, None, ,  
12/07/2017 00:50, 26, 60, 15 ,6, 11, NW, None, None, ,  
12/07/2017 00:49, 26, 60, 15 ,6, 11, W, None, None, ,  
12/07/2017 00:39, 26, 60, 14 ,6, 10, NW, None, None, ,  
12/07/2017 00:35, 26, 60, 14 ,6, 10, NW, None, None, ,  
12/07/2017 00:29, 26, 60, 14 ,6, 11, NW, None, None, ,  
12/07/2017 00:20, 26, 60, 14 ,6, 11, W, None, None, ,  
12/07/2017 00:19, 26, 60, 14 ,6, 11, NW, None, None, ,  
12/07/2017 00:09, 26, 60, 14 ,6, 9, NW, None, None, ,  
12/07/2017 00:05, 26, 60, 14 ,6, 10, NW, None, None, ,  
12/06/2017 23:59, 26, 59, 14 ,6, 11, NW, None, None, ,  
12/06/2017 23:50, 26, 59, 14 ,7, 12, NW, None, None, ,  
12/06/2017 23:49, 26, 59, 14 ,6, 11, W, None, None, ,  
12/06/2017 23:39, 26, 60, 14 ,6, 9, W, None, None, ,  
12/06/2017 23:35, 26, 60, 14 ,6, 9, NW, None, None, ,  
12/06/2017 23:29, 26, 61, 14 ,6, 9, NW, None, None, ,  
12/06/2017 23:20, 25, 62, 14 ,5, 8, W, None, None, ,  
12/06/2017 23:19, 25, 62, 14 ,4, 7, NW, None, None, ,  
12/06/2017 23:09, 25, 63, 14 ,4, 7, NW, None, None, ,  
12/06/2017 23:05, 25, 63, 14 ,4, 6, NW, None, None, ,  
12/06/2017 22:59, 25, 63, 14 ,3, 6, NW, None, None, ,  
12/06/2017 22:50, 24, 64, 14 ,2, 6, NW, None, None, ,  
12/06/2017 22:49, 24, 64, 14 ,3, 6, NW, None, None, ,  
12/06/2017 22:39, 24, 64, 14 ,4, 6, NW, None, None, ,  
12/06/2017 22:35, 24, 64, 14 ,2, 6, NW, None, None, ,  
12/06/2017 22:29, 24, 64, 14 ,3, 5, NW, None, None, ,  
12/06/2017 22:20, 24, 63, 14 ,2, 5, NW, None, None, ,  
12/06/2017 22:19, 24, 63, 14 ,2, 5, NW, None, None, ,  
12/06/2017 22:09, 24, 63, 14 ,3, 6, NW, None, None, ,  
12/06/2017 22:05, 24, 63, 14 ,3, 6, NW, None, None, ,  
12/06/2017 21:59, 24, 63, 14 ,3, 6, NW, None, None, ,  
12/06/2017 21:50, 24, 64, 13 ,3, 4, NW, None, None, ,  
12/06/2017 21:49, 24, 64, 14 ,2, 4, NW, None, None, ,  
12/06/2017 21:39, 23, 64, 13 ,3, 5, W, None, None, ,  
12/06/2017 21:35, 23, 65, 13 ,2, 4, NW, None, None, ,  
12/06/2017 21:29, 22, 66, 13 ,2, 4, NW, None, None, ,  
12/06/2017 21:20, 22, 66, 13 ,2, 6, NW, None, None, ,  
12/06/2017 21:19, 22, 66, 13 ,3, 6, NW, None, None, ,  
12/06/2017 21:09, 21, 68, 13 ,2, 4, NW, None, None, ,  
12/06/2017 21:05, 21, 68, 12 ,2, 4, W, None, None, ,  
12/06/2017 20:59, 22, 67, 13 ,2, 4, NW, None, None, ,  
12/06/2017 20:50, 22, 67, 13 ,1, 2, NW, None, None, ,  
12/06/2017 20:49, 22, 67, 13 ,1, 2, NW, None, None, ,  
12/06/2017 20:39, 22, 67, 13 ,2, 4, NW, None, None, ,  
12/06/2017 20:35, 22, 67, 13 ,2, 4, NW, None, None, ,  
12/06/2017 20:29, 22, 66, 13 ,2, 4, NW, None, None, ,  
12/06/2017 20:20, 23, 66, 13 ,2, 4, NW, None, None, ,  
12/06/2017 20:18, 23, 66, 13 ,2, 5, NW, None, None, ,  
12/06/2017 20:08, 22, 67, 13 ,4, 5, NW, None, None, ,  
12/06/2017 20:05, 22, 68, 13 ,3, 5, NW, None, None, ,  
12/06/2017 19:58, 22, 68, 13 ,2, 6, NW, None, None, ,  
12/06/2017 19:50, 22, 68, 13 ,3, 6, NW, None, None, ,  
12/06/2017 19:48, 22, 68, 13 ,4, 6, NW, None, None, ,  
12/06/2017 19:38, 23, 67, 14 ,4, 9, W, None, None, ,  
12/06/2017 19:35, 23, 67, 14 ,4, 9, W, None, None, ,  
12/06/2017 19:28, 23, 66, 14 ,5, 8, NW, None, None, ,  
12/06/2017 19:20, 23, 66, 13 ,6, 12, W, None, None, ,  
12/06/2017 19:18, 23, 66, 13 ,6, 12, NW, None, None, ,  
12/06/2017 19:08, 23, 66, 13 ,7, 12, NW, None, None, ,  
12/06/2017 19:05, 23, 66, 13 ,7, 11, NW, None, None, ,  
12/06/2017 18:58, 23, 66, 13 ,7, 11, NW, None, None, ,  
12/06/2017 18:50, 23, 65, 13 ,8, 12, NW, None, None, ,  
Change End Date:

Copyright © 1998-2015 Vaisala, Inc.
All Rights Reserved
Send comments about the data to:
SCAN Web ® is a registered trademark of Vaisala, Inc.
SCAN Web Version 6.0